loading
|

ELECTRON KICK STAGE R/B, 59590

Orbit data source: Space-Track

ELECTRON KICK STAGE R/B, 59590 is space debris in SSO originally from a launch on Tue, 23 Apr 2024 UTC launched from the Rocket Lab Launch Complex (RLLC). Debris objects in space refer to the collection of defunct objects orbiting the Earth. Examples of debris include non-operational satellites, rocket bodies, and fragments generated from explosions, collisions, or faulty payload assembly.

Loading next visibility...
Loading greatness...
ELECTRON KICK STAGE R/B details
Identifier
59590, 2024-077D
Orbit
SSO
Last TLE update18 hours ago
Origin
Flag of USRocket Lab (US)
ManufacturerRocket Lab
MissionSpacecraft
Bus & MotorKICK STAGE, CURIE
Mass~50 kg wet, ~50 kg dry
Launch date (UTC)
2024-04-23 (5 months ago)
Launch vehicleUnknown
Launch site
Rocket Lab Launch Complex (RLLC)
Object type
Payload
Rocket body
Debris
Shape & HBRUnknown
Radar Cross SectionMedium (>0.1 m² and <1 m²)

Expand to show TLE details & history

TLE from 18 hours ago
0 ELECTRON KICK STAGE R/B
1 59590U 24077D   24279.14117463  .00016809  00000-0  17247-2 0  9996
2 59590  97.3837 339.8495 0376236  51.0488 312.3609 14.49909478 23757
Epoch: 2024-10-05T03:23Z
Definitive object data (Epoch: 2024-10-05T03:23:17.488Z)
Latitude0.00008°
Longitude-85.27513°
Altitude554.514 km
Speed7.677 km/s
True Right ascension22h 39m 23s
True Declination0° 00' 00"
Sunlit
Object was in full shadow at TLE epoch
Predictive object data (real-time)
Latitude-17.103°
Longitude-82.33776°
Altitude614.435 km
Speed7.613 km/s
Apparent Right ascension00h 46m 39s
Apparent Declination-32° 39' 56"
Sunlit
Object is in full shadow
Predictive observer data (real-time)
Local Sidereal Time15:31:33
Azimuth90.795° ESE
Elevation-56.299°
Doppler factor1
Orbital elements
Apogee990.167 km
Perigee455.827 km
Semi-major axis7,101.134 km
Eccentricity0.0376236
Inclination97.3837°
RAAN339.8495°
Arg. of periapsis51.0488°
True anomaly309.07288°
Mean anomaly312.3609°
Eccentric anomaly310.72728°
Mean motion3.62703 °/min
BSTAR0.0017247
Period99.25 mins
No data available
No data available
Other satellites on launch #77 in the year 2024 (2024-04-23 UTC)

ELECTRON KICK STAGE R/B Visibility forecast

Observer location: 39.9160978°, -105.1181434

ELECTRON KICK STAGE R/B is not visible in the next 10 days
Span
Click to sort rows by Start time (UTC) header in descending order
Start Az.
Max El. time (UTC)
Max El. Az.
Max El.
End time (UTC)
End Az.